Powrót do katalogu

LEMUR 2 BALTO

AktywnyPogodaSSO
NORAD 63395·PAYLOAD·🇺🇸 United States

Wystrzelony Mar 15, 2025 z Vandenberg Space Force Base

Loading…

Następne Przeloty (najbliższe 24 godziny)

TLE

ŚwieżeSource: Space-Track

Epoka: Sep 14, 2026, 03:34 UTC

1 63395U 25052BH  26257.14868451  .00002775  00000-0  22354-3 0  9999
2 63395  97.6686 149.7161 0009324 125.9877 234.2213 15.00720147 82101

Śledź LEMUR 2 BALTO w czasie rzeczywistym z AllMySat

Download on the App Store